Wind_Speed
14 12 11 12 13 14 15 16 17 18 19 19 18 18 18 17 17 16 16 16 16 17 19 20 22 23 23 24 25 26 27 28 30 31 30 28 28 26 25 23 22 22 24 25 26 26 27 27 26 26 25 25 25 24 24 23 23 22 22 22 22 21 19
15 14 14 15 15 15 16 17 17 17 18 19 19 18 17 16 16 16 17 17 18 19 20 20 21 22 23 24 25 26 28 28 30 32 32 31 30 29 28 26 24 23 24 26 27 27 28 27 27 27 26 26 26 26 25 25 24 24 23 24 24 23 22
14 14 15 16 16 17 17 17 17 17 18 19 19 18 17 17 17 17 19 20 20 20 20 20 20 20 22 23 24 26 28 28 29 31 33 33 32 32 31 29 26 25 25 26 27 27 27 27 27 27 26 26 27 27 26 26 25 25 25 25 25 25 24
13 14 14 15 17 17 17 17 17 16 16 16 17 17 16 17 17 18 19 19 19 19 19 19 19 19 20 22 23 24 26 26 27 29 31 33 33 33 34 32 29 28 27 27 28 28 27 27 27 27 27 26 27 27 27 26 26 26 26 26 26 25 25
14 13 14 15 16 17 17 17 16 15 14 14 15 15 15 16 17 18 18 18 18 18 18 19 18 19 20 20 21 22 23 24 25 27 28 31 33 33 33 33 31 29 28 28 28 28 27 26 26 26 26 26 26 26 26 26 26 26 26 26 26 26 26
14 14 14 15 16 16 16 16 15 14 14 14 14 14 15 16 17 17 18 19 19 18 17 17 18 18 19 19 20 20 21 22 23 24 26 29 33 32 32 33 32 30 29 29 28 28 27 26 26 26 26 26 26 26 26 26 27 26 26 27 27 27 27
15 15 16 16 16 16 15 14 14 14 14 13 14 14 15 16 17 17 17 17 16 15 14 15 17 17 18 18 18 18 20 21 22 22 24 27 31 34 33 32 31 30 30 29 29 28 28 27 26 26 26 26 27 27 27 27 27 27 27 27 27 27 27
15 15 15 16 16 16 14 14 14 13 13 12 13 14 14 15 16 16 14 13 12 12 13 15 16 17 17 17 18 18 20 22 22 22 23 24 28 33 34 31 30 30 30 29 29 28 28 28 28 27 27 27 28 28 28 28 28 28 28 28 28 27 26
15 15 15 16 16 16 15 14 13 13 11 11 12 12 13 13 13 13 13 12 11 12 14 15 15 16 16 17 18 19 21 23 23 22 22 24 27 30 32 31 31 30 30 29 29 28 29 30 30 29 28 28 28 28 28 28 28 28 28 28 29 28 27
15 15 16 16 16 15 14 13 13 12 10 10 11 11 11 11 11 11 11 11 12 13 15 15 15 14 15 16 18 20 20 21 22 22 22 24 25 27 31 33 32 30 29 29 29 29 29 31 31 29 29 28 27 27 27 27 28 28 28 29 29 29 28
14 15 17 17 16 15 13 12 11 10 10 10 11 10 10 9 9 9 9 10 11 12 14 15 14 13 14 15 16 18 17 18 19 20 21 23 23 24 29 33 33 30 29 29 30 30 30 31 31 29 29 28 26 25 26 26 27 27 28 29 30 30 29
15 16 18 17 16 15 12 11 9 9 9 10 11 11 10 10 10 10 10 11 12 12 13 14 14 13 13 12 14 15 14 14 15 15 19 28 31 26 27 31 32 31 29 28 29 30 29 29 29 29 30 29 27 27 27 27 27 28 28 29 30 31 30
16 17 18 17 17 15 12 11 9 8 8 9 11 11 11 11 11 11 11 11 12 12 13 13 14 13 12 10 11 12 11 11 10 12 18 30 37 33 30 31 32 31 30 29 28 28 27 27 28 29 29 29 28 28 28 27 27 28 28 29 30 31 31
16 17 17 17 17 15 13 11 9 8 8 9 10 11 10 10 11 11 11 11 12 12 12 13 13 13 12 9 8 10 9 9 9 12 17 25 32 33 32 32 32 31 31 30 28 27 25 26 28 28 29 29 28 27 27 27 27 28 28 29 30 30 30
17 17 18 18 17 15 13 11 10 9 10 11 11 10 10 10 10 11 11 11 11 11 12 12 13 11 10 8 6 8 8 8 9 10 14 19 21 24 28 30 31 32 32 30 27 25 25 26 28 28 28 28 27 27 27 27 28 28 29 29 29 30 30
17 17 17 17 17 15 13 11 11 10 11 12 11 10 9 9 9 10 10 10 10 10 11 12 12 10 9 7 5 6 7 8 9 9 12 15 19 22 25 28 30 32 31 29 26 25 26 28 29 28 27 27 26 26 27 27 28 29 30 30 30 30 29
17 16 16 16 16 15 14 12 11 11 11 11 11 11 10 10 10 10 10 10 10 10 10 10 10 9 8 6 5 4 5 6 8 8 10 14 19 23 26 28 28 28 28 26 25 25 26 27 28 28 27 26 26 26 27 27 28 29 30 31 31 30 29
17 15 15 16 15 15 13 12 11 11 11 10 10 10 10 10 10 10 10 10 9 9 9 9 9 9 8 7 6 4 2 5 7 8 10 13 18 22 24 26 26 26 26 26 26 27 26 27 28 27 26 25 25 25 26 27 28 28 30 31 30 29 28
17 15 16 16 15 14 13 12 11 10 10 10 10 9 9 9 9 9 9 9 9 9 8 8 9 9 8 8 6 5 1 3 6 7 9 11 13 15 17 19 22 25 27 28 28 28 27 28 28 27 25 25 25 26 27 27 28 29 30 29 29 29 29
17 16 16 16 14 14 13 11 11 10 9 10 10 9 9 8 8 8 8 9 9 9 8 8 9 9 9 8 7 5 3 1 3 5 8 10 10 11 11 13 16 20 24 28 30 30 30 29 28 26 26 25 26 28 28 27 28 29 29 28 28 29 28
17 15 15 14 13 13 12 10 11 11 10 10 10 10 9 8 8 8 8 8 9 9 9 8 9 9 10 9 8 6 5 4 3 2 5 8 9 10 11 12 13 15 17 22 26 26 27 28 27 26 26 26 27 27 27 27 28 29 29 28 28 27 26
17 15 13 12 13 12 11 10 11 11 11 11 10 10 9 8 8 8 7 8 8 8 9 9 9 9 10 10 9 8 7 6 5 4 3 4 7 9 11 12 14 14 14 16 19 21 23 25 26 25 24 24 25 25 26 27 28 28 28 28 27 26 26
16 14 13 12 13 13 12 11 11 11 12 12 11 11 10 9 8 8 8 8 8 8 8 9 9 9 10 10 10 9 8 7 6 6 5 4 4 8 11 12 13 13 13 14 16 18 21 22 23 22 22 22 23 23 25 26 26 27 28 27 26 26 26
15 14 13 13 13 14 13 12 12 12 12 13 12 11 11 10 9 8 8 8 8 8 8 8 8 9 9 10 10 9 9 8 7 6 6 6 4 4 9 12 13 13 13 13 14 16 18 19 20 21 22 22 23 23 24 24 25 25 27 27 27 26 26
15 14 14 14 14 15 15 14 13 13 13 13 13 13 12 11 10 9 9 9 8 8 8 8 8 9 9 9 9 9 9 9 8 8 7 6 6 4 4 8 12 13 14 14 14 15 16 18 19 20 22 22 22 23 24 24 24 25 27 27 26 25 26
17 15 16 16 16 15 15 15 14 14 14 13 13 14 13 12 11 10 10 10 9 8 8 8 8 8 9 9 9 9 9 9 9 9 8 7 6 5 4 4 7 11 14 15 15 15 16 16 18 19 20 21 22 23 23 24 24 26 27 27 25 24 25
21 20 19 19 17 16 15 15 14 14 15 14 14 14 14 13 12 11 10 10 10 9 9 8 8 8 8 9 9 9 8 8 9 9 9 9 8 7 6 5 4 6 9 12 15 16 17 16 16 17 19 21 23 24 24 23 23 24 24 24 23 23 24
24 24 23 21 20 17 15 14 14 14 15 16 15 14 14 14 13 12 11 11 11 10 10 9 8 8 8 8 9 9 9 9 8 9 9 9 9 9 8 7 6 5 5 6 9 13 15 17 18 18 19 20 22 23 24 24 22 21 22 21 21 21 22
27 27 26 25 23 20 16 14 14 14 15 16 16 16 15 15 14 12 11 11 11 11 11 11 11 10 9 8 9 9 10 10 9 9 9 9 9 9 9 8 8 7 6 6 6 7 9 12 15 18 20 22 23 23 24 23 22 22 22 22 21 21 22
28 28 28 27 25 22 19 15 15 15 16 17 17 17 16 16 16 14 12 11 11 11 11 11 12 12 11 10 9 9 10 10 10 10 9 9 9 9 9 9 9 8 8 8 8 8 7 8 9 12 15 19 22 24 25 24 23 22 23 23 22 22 23
27 27 28 27 25 24 21 18 16 16 17 18 18 18 17 17 16 15 14 13 12 12 11 11 11 12 12 11 11 10 10 10 10 10 10 10 9 9 9 9 9 9 9 9 9 9 9 9 9 9 10 12 15 19 22 24 23 24 24 24 24 24 25
26 27 27 26 25 25 23 21 19 17 17 18 18 18 18 17 16 16 16 15 14 13 12 12 11 12 12 12 11 11 11 10 10 10 11 11 10 10 10 10 10 10 10 10 10 10 10 11 11 11 11 11 12 14 17 19 20 21 22 22 23 24 25
28 28 27 26 26 26 25 24 23 21 18 18 18 19 18 18 17 16 17 16 15 14 13 13 13 12 12 12 12 12 12 11 11 11 11 11 11 12 12 12 12 11 11 11 11 11 11 11 11 11 12 12 13 14 16 17 16 16 17 18 19 20 22
29 29 28 28 28 28 27 26 26 24 21 19 19 18 18 18 17 17 17 17 17 16 15 14 14 13 13 12 12 13 13 13 12 12 12 12 12 12 12 12 12 13 13 13 13 12 12 12 12 12 13 13 14 14 15 16 17 16 16 17 18 19 20
31 30 30 30 30 30 29 28 27 26 24 22 20 19 18 18 18 18 18 18 18 17 17 16 15 15 14 13 13 13 13 14 14 14 14 13 13 13 13 13 13 13 13 13 13 14 14 14 14 14 14 14 15 15 15 16 17 17 17 18 19 20 21
32 32 32 32 31 31 30 29 28 28 27 24 22 20 19 19 19 19 19 19 19 19 19 18 17 16 15 15 14 14 14 14 14 14 15 15 15 15 14 14 14 14 14 14 14 14 14 14 14 15 15 15 16 16 17 17 17 17 18 19 19 20 21
34 34 35 35 33 32 31 31 29 29 28 26 25 24 22 21 21 21 21 21 20 20 20 20 19 18 17 16 15 15 15 15 15 15 15 16 16 16 16 16 15 15 14 14 14 14 14 14 14 14 15 16 17 18 18 18 18 18 18 19 20 20 21
34 33 34 35 34 33 33 33 32 31 31 30 29 27 26 24 23 24 23 23 22 21 21 21 20 20 18 17 16 16 16 16 16 16 16 17 17 18 18 18 17 17 16 16 15 15 15 14 14 14 15 16 16 17 18 18 19 19 19 19 19 20 20
Wind_Direction
305 305 301 291 283 277 272 269 264 257 255 254 253 252 250 251 250 250 249 248 247 246 245 243 244 248 252 253 252 248 244 243 243 242 242 239 233 230 231 231 230 230 229 226 222 222 223 221 218 214 210 208 206 204 201 198 196 197 197 197 197 197 198
305 302 299 291 284 280 275 272 267 260 256 256 257 256 254 254 254 253 253 252 252 252 251 250 250 252 253 253 253 252 248 245 245 243 240 237 234 231 230 228 228 230 231 229 227 225 226 225 223 221 216 213 211 208 205 203 201 200 200 200 200 201 201
306 300 298 293 286 281 277 271 265 260 256 256 257 257 256 255 254 252 249 248 249 250 252 252 253 254 253 254 253 252 248 245 246 245 239 234 234 234 232 227 224 225 229 231 230 228 228 227 226 226 223 219 216 212 210 208 205 204 204 204 204 204 203
313 306 301 297 292 285 279 273 268 265 263 262 261 260 259 256 252 249 247 247 248 252 257 260 261 259 257 257 255 252 250 248 248 245 236 230 231 232 232 229 224 221 223 230 232 228 227 228 228 229 228 226 222 218 215 213 211 208 207 208 209 209 208
317 311 307 305 302 295 286 279 277 276 276 274 270 266 262 259 256 255 256 259 260 262 264 266 268 267 263 261 257 254 253 251 251 248 238 231 230 232 233 231 229 224 220 225 231 229 226 226 228 230 230 229 227 224 220 218 216 214 212 212 212 212 213
323 316 312 310 307 301 293 289 288 288 287 284 279 273 268 265 267 269 270 270 267 266 266 268 273 272 267 265 262 257 255 252 251 250 243 233 228 228 231 231 231 229 221 220 228 230 226 224 226 228 229 229 228 227 224 222 221 219 218 217 216 215 216
328 319 313 310 308 305 300 296 294 293 291 288 281 275 273 274 276 277 277 274 267 263 266 273 276 273 268 266 265 261 255 250 248 247 245 239 229 225 225 226 228 229 224 219 223 228 227 224 223 225 227 227 226 226 225 224 223 222 221 221 221 218 218
331 323 317 313 313 311 308 302 299 296 292 286 281 279 279 280 279 279 279 277 269 263 271 278 279 277 271 267 265 259 251 246 243 240 242 243 234 225 222 222 224 227 226 219 219 224 226 224 222 222 224 225 225 224 224 224 224 223 223 224 224 222 220
333 328 324 321 320 317 313 307 303 299 291 284 282 281 282 282 283 283 278 272 265 265 274 279 280 281 277 271 267 258 249 244 238 235 237 238 234 228 224 223 223 225 226 221 217 220 225 225 221 219 220 222 222 222 222 223 224 224 224 226 227 225 223
337 334 331 328 324 321 316 309 303 299 290 280 279 280 281 286 291 288 274 262 259 268 278 281 282 284 281 274 267 259 253 245 237 235 236 233 232 232 226 223 223 225 226 223 218 218 223 226 223 220 221 222 223 223 222 222 224 225 226 227 229 228 226
337 336 336 332 328 326 320 311 303 298 290 280 279 280 282 290 296 288 271 261 266 277 285 288 288 289 286 276 266 258 252 246 240 236 233 230 232 238 232 224 223 224 225 225 222 219 223 225 222 221 222 223 225 226 225 224 224 225 226 228 229 230 229
334 335 337 336 332 329 322 310 301 297 289 281 281 281 282 288 291 286 275 269 276 287 292 294 295 297 294 282 266 255 245 243 238 225 227 231 229 233 237 227 220 221 223 224 226 225 225 226 223 221 220 219 222 225 225 225 224 224 225 227 229 230 230
330 334 338 338 336 333 322 307 299 296 292 285 284 286 287 289 289 286 283 279 282 290 295 297 301 304 303 289 268 255 240 239 233 205 216 231 230 231 236 226 217 219 221 222 226 227 227 226 224 223 221 219 221 224 226 227 226 225 224 225 228 231 232
328 333 335 336 337 334 323 308 300 300 301 296 292 293 294 294 292 291 291 289 287 292 298 302 305 310 310 295 266 256 243 234 226 206 211 224 229 233 231 219 214 218 220 222 225 226 226 225 222 222 222 222 223 225 228 230 230 229 227 225 227 230 233
328 332 332 334 336 335 326 315 309 308 308 306 302 301 300 299 299 298 298 297 295 298 305 307 309 315 321 311 270 253 245 229 222 220 216 213 216 221 218 213 213 216 217 221 224 224 225 225 222 221 222 224 226 228 229 230 229 230 231 229 228 229 232
332 333 333 334 337 339 334 327 321 315 311 310 309 310 310 309 310 308 305 307 307 308 313 315 314 317 327 330 297 257 243 228 220 223 219 210 206 211 213 214 216 217 217 219 220 223 226 226 224 223 224 226 227 228 230 231 230 230 231 231 231 230 232
335 335 334 334 339 341 338 332 329 321 314 312 312 315 318 320 322 320 315 314 315 317 322 324 322 319 326 342 342 301 257 235 221 217 219 214 211 215 218 217 217 220 221 220 222 226 228 226 225 226 226 227 228 228 230 231 230 230 231 232 233 234 234
331 332 329 330 334 339 336 330 328 323 319 317 316 319 324 326 329 327 323 322 322 326 333 332 329 328 328 341 6 10 286 239 222 212 215 217 216 221 224 221 218 219 221 223 226 227 227 225 225 228 230 231 232 232 232 232 232 232 232 232 233 235 237
328 328 325 325 329 335 335 330 327 325 323 323 322 323 327 329 332 332 329 329 330 336 341 337 333 335 333 338 4 28 19 237 230 222 222 225 225 227 230 226 222 221 224 227 228 228 227 223 222 226 230 233 235 235 233 233 234 234 233 232 232 234 237
323 324 325 326 329 336 336 333 332 328 328 330 328 327 329 331 335 336 334 334 337 340 343 340 336 338 339 341 351 7 16 304 241 229 225 230 236 237 237 234 230 228 229 231 232 230 226 219 218 223 228 230 233 233 232 233 235 234 234 233 232 235 238
312 317 323 326 330 337 338 336 337 335 334 335 331 329 331 332 335 339 342 343 344 343 343 341 339 338 339 342 345 349 355 355 340 275 231 226 234 243 244 239 235 233 230 231 231 226 218 215 219 224 227 230 233 234 234 235 236 236 237 236 236 237 238
301 304 314 321 328 336 337 334 336 339 339 337 331 327 328 330 333 340 347 351 350 346 344 343 342 339 335 335 339 343 345 346 348 341 302 241 231 238 244 242 237 232 227 225 225 221 217 219 224 226 227 231 234 234 235 236 237 238 239 241 241 239 238
293 293 301 312 321 328 331 329 329 333 335 333 328 324 323 325 330 336 344 350 350 348 346 344 341 339 334 331 332 337 340 342 343 343 336 313 254 235 236 238 237 231 224 220 220 221 221 224 227 228 230 233 233 233 234 236 237 239 241 242 243 242 240
288 286 292 305 314 317 318 319 321 322 324 325 325 324 321 321 325 330 334 338 341 343 346 344 339 336 334 332 331 333 335 336 336 337 337 337 324 265 235 232 233 231 226 220 217 218 220 223 225 227 229 231 231 231 234 236 238 240 241 242 243 242 242
284 282 287 299 309 311 307 306 311 314 315 317 321 323 321 320 322 326 326 325 327 332 338 340 336 334 333 333 332 332 330 328 328 329 330 334 339 332 276 241 235 232 229 225 221 220 221 223 223 225 227 229 230 232 235 238 239 239 240 240 241 242 245
281 280 283 291 301 305 302 298 299 303 306 308 312 317 319 317 317 319 320 317 316 320 326 331 330 329 328 328 329 330 328 323 321 322 325 328 329 332 327 291 253 240 236 233 229 227 227 228 228 229 229 230 232 235 238 239 239 238 237 238 240 243 245
277 276 278 283 291 297 297 295 294 295 296 297 300 305 310 313 313 313 314 312 311 310 312 315 318 320 321 321 322 323 323 320 317 317 320 322 323 321 321 321 301 265 248 242 239 238 237 236 236 235 235 235 236 239 241 242 241 239 239 241 243 245 247
274 273 274 277 282 287 288 290 293 293 291 290 291 294 299 304 307 309 311 310 308 307 307 307 307 309 313 314 314 313 313 312 312 313 315 316 317 317 317 316 312 300 281 262 250 246 245 244 244 243 242 242 241 242 243 243 242 241 243 245 245 246 248
273 271 271 272 276 279 278 280 287 290 289 288 287 287 290 293 296 300 306 309 308 306 306 304 303 302 304 307 307 306 306 306 306 307 308 309 310 310 310 311 309 304 299 292 278 264 256 251 249 248 247 247 247 247 247 246 244 244 244 245 245 244 246
274 270 268 269 272 272 270 272 278 284 286 286 286 286 288 290 290 290 295 303 306 304 302 301 301 300 299 299 300 299 299 299 300 300 301 302 304 303 302 302 301 299 295 291 287 284 279 270 261 255 251 250 250 250 250 250 249 249 248 247 249 249 249
270 268 266 266 268 268 268 269 273 277 281 283 284 285 287 288 287 286 288 293 297 297 295 294 295 296 296 295 296 295 294 293 293 294 294 294 295 295 295 294 293 291 288 284 283 283 283 281 279 275 270 264 260 257 255 253 252 253 253 252 254 256 256
262 263 263 263 264 266 269 271 272 273 275 277 280 283 286 287 286 284 285 287 289 289 289 287 286 288 290 292 293 294 293 292 288 287 287 287 287 286 287 287 288 287 285 283 281 279 278 278 278 277 276 275 274 271 266 261 257 257 259 261 261 262 262
254 256 258 261 263 265 269 271 272 272 271 272 275 279 283 284 284 283 283 283 283 283 282 280 278 278 280 284 288 291 292 291 288 285 283 282 283 282 282 282 283 283 284 284 283 281 279 278 278 277 275 274 273 274 273 271 268 267 268 270 270 269 269
248 250 254 259 263 265 266 267 268 269 269 268 269 274 278 280 280 279 279 277 276 275 274 273 272 270 270 273 278 284 288 288 287 287 285 283 282 281 281 282 282 282 283 283 283 284 283 282 281 279 277 275 274 272 272 273 274 274 273 272 272 272 273
244 245 250 256 260 262 263 263 263 266 267 265 264 266 270 273 274 274 274 272 270 269 268 267 267 265 265 265 268 273 279 283 285 285 284 283 281 281 281 281 281 280 280 279 279 280 280 281 281 282 281 280 279 277 276 275 276 276 274 273 272 273 274
241 242 247 251 255 258 259 258 258 260 262 261 261 261 262 263 265 268 268 267 265 264 264 263 263 263 263 261 262 264 268 274 279 281 282 281 281 279 278 278 278 278 278 278 277 277 276 277 278 279 280 280 280 280 280 279 278 278 277 276 275 275 274
241 244 246 247 249 252 253 254 255 257 258 258 257 256 255 255 257 260 263 264 262 261 261 261 261 262 262 262 262 262 263 266 269 273 276 278 278 278 277 276 275 275 276 276 277 278 278 277 277 275 275 275 276 278 279 280 281 281 280 279 278 277 277
241 243 242 242 243 245 247 250 251 251 251 251 250 250 251 250 251 254 257 259 260 259 259 260 260 260 261 261 262 263 263 263 264 266 269 271 272 273 274 274 273 273 274 273 274 275 277 277 276 275 273 272 273 273 275 276 278 278 279 278 278 277 277
Height
5865 5864 5864 5863 5862 5862 5861 5861 5861 5860 5860 5860 5861 5862 5862 5862 5862 5863 5863 5864 5864 5864 5865 5865 5865 5866 5867 5868 5868 5869 5870 5872 5873 5873 5874 5876 5878 5879 5880 5882 5884 5885 5887 5888 5889 5890 5891 5893 5894 5896 5897 5899 5900 5901 5903 5903 5904 5906 5907 5908 5910 5912 5913
5863 5863 5862 5861 5860 5860 5859 5859 5858 5858 5858 5858 5858 5859 5859 5860 5860 5860 5861 5861 5862 5862 5862 5862 5863 5863 5864 5865 5865 5866 5867 5868 5868 5869 5870 5873 5875 5876 5877 5879 5881 5883 5884 5886 5887 5889 5890 5892 5893 5894 5896 5898 5899 5900 5902 5903 5904 5905 5906 5908 5909 5910 5912
5862 5861 5860 5859 5858 5857 5856 5856 5855 5855 5855 5855 5856 5857 5857 5858 5858 5858 5858 5859 5859 5859 5859 5860 5860 5860 5861 5861 5861 5862 5862 5863 5864 5865 5866 5869 5871 5873 5874 5876 5878 5879 5881 5883 5885 5887 5888 5890 5891 5893 5895 5897 5898 5899 5900 5902 5903 5904 5906 5907 5908 5909 5910
5860 5859 5858 5857 5856 5855 5854 5853 5852 5852 5853 5854 5854 5855 5855 5855 5856 5856 5856 5856 5857 5857 5856 5856 5857 5857 5857 5857 5857 5857 5857 5859 5860 5861 5862 5865 5867 5869 5871 5873 5874 5876 5878 5880 5882 5884 5886 5887 5889 5891 5893 5895 5897 5898 5899 5901 5902 5903 5904 5906 5907 5908 5909
5859 5858 5857 5855 5854 5852 5851 5851 5851 5851 5852 5852 5852 5852 5853 5853 5853 5853 5853 5854 5854 5854 5853 5853 5853 5853 5853 5852 5852 5853 5854 5855 5856 5857 5859 5861 5863 5866 5868 5870 5872 5873 5875 5877 5879 5882 5884 5885 5886 5888 5891 5893 5895 5897 5898 5899 5901 5902 5903 5904 5905 5906 5907
5857 5856 5855 5854 5852 5851 5850 5850 5850 5850 5851 5850 5850 5850 5850 5850 5850 5850 5851 5850 5850 5850 5850 5850 5850 5850 5849 5849 5849 5850 5851 5852 5853 5854 5855 5857 5859 5862 5865 5867 5869 5871 5872 5874 5876 5879 5882 5883 5884 5886 5888 5890 5892 5894 5896 5898 5899 5901 5902 5903 5904 5905 5906
5856 5855 5853 5852 5851 5850 5849 5849 5849 5849 5849 5849 5849 5848 5848 5848 5848 5848 5848 5847 5847 5847 5847 5847 5847 5847 5846 5845 5846 5847 5848 5848 5849 5850 5851 5853 5855 5858 5860 5863 5866 5868 5870 5871 5873 5876 5879 5881 5882 5883 5885 5887 5889 5891 5894 5895 5897 5899 5900 5901 5902 5903 5904
5855 5853 5851 5850 5850 5849 5849 5848 5848 5848 5848 5848 5848 5847 5847 5847 5846 5846 5846 5845 5845 5844 5844 5844 5844 5844 5844 5843 5843 5843 5844 5845 5845 5846 5849 5851 5853 5855 5857 5860 5863 5865 5867 5868 5870 5873 5876 5878 5879 5880 5882 5884 5886 5888 5890 5892 5894 5896 5898 5899 5900 5901 5902
5854 5852 5850 5849 5848 5848 5847 5847 5847 5846 5847 5847 5847 5846 5846 5846 5845 5844 5843 5843 5842 5842 5842 5841 5841 5841 5841 5841 5840 5840 5841 5842 5842 5843 5845 5847 5850 5852 5855 5857 5859 5861 5864 5866 5867 5870 5873 5874 5875 5876 5878 5880 5882 5885 5887 5889 5891 5893 5895 5897 5898 5899 5900
5853 5852 5850 5848 5847 5847 5846 5846 5845 5845 5845 5846 5846 5845 5845 5844 5843 5842 5842 5841 5841 5841 5840 5839 5839 5839 5838 5838 5838 5838 5838 5839 5840 5841 5842 5844 5847 5849 5851 5853 5855 5858 5861 5863 5864 5867 5869 5871 5873 5875 5876 5878 5880 5882 5884 5887 5888 5890 5892 5894 5895 5896 5898
5853 5851 5850 5848 5846 5845 5845 5845 5844 5844 5844 5844 5844 5844 5843 5843 5842 5841 5841 5840 5840 5840 5839 5838 5837 5837 5836 5836 5836 5836 5836 5837 5838 5838 5839 5841 5844 5846 5848 5850 5852 5855 5858 5860 5862 5863 5865 5867 5870 5873 5874 5877 5879 5880 5882 5884 5886 5888 5889 5891 5892 5893 5895
5852 5851 5849 5847 5846 5845 5844 5844 5844 5843 5843 5843 5842 5842 5842 5841 5841 5840 5840 5839 5839 5839 5838 5837 5836 5835 5835 5834 5834 5834 5834 5835 5835 5836 5837 5837 5839 5841 5845 5847 5850 5852 5855 5857 5859 5860 5862 5865 5867 5869 5870 5873 5876 5878 5879 5880 5882 5884 5886 5887 5889 5890 5891
5852 5850 5848 5847 5845 5844 5843 5843 5842 5842 5842 5841 5841 5841 5840 5840 5840 5839 5838 5838 5838 5837 5837 5836 5835 5834 5833 5833 5832 5832 5832 5833 5833 5834 5835 5836 5836 5838 5841 5844 5847 5849 5852 5854 5855 5857 5860 5862 5864 5865 5867 5870 5872 5875 5876 5877 5879 5881 5883 5884 5885 5887 5888
5851 5850 5848 5846 5845 5844 5843 5842 5841 5841 5841 5840 5840 5839 5839 5839 5838 5838 5837 5837 5836 5836 5835 5834 5834 5833 5832 5831 5830 5829 5829 5830 5831 5833 5834 5835 5836 5836 5839 5841 5844 5846 5849 5851 5852 5855 5858 5859 5860 5862 5865 5867 5869 5871 5873 5875 5876 5878 5880 5881 5883 5884 5885
5851 5849 5847 5845 5844 5843 5842 5841 5840 5840 5839 5839 5838 5838 5838 5838 5837 5837 5836 5836 5835 5834 5834 5833 5833 5832 5831 5829 5828 5828 5828 5828 5830 5831 5832 5834 5835 5836 5838 5839 5840 5842 5844 5847 5849 5852 5855 5856 5857 5859 5862 5864 5866 5868 5869 5871 5873 5875 5876 5878 5879 5881 5882
5851 5849 5847 5845 5844 5843 5842 5840 5839 5839 5838 5838 5837 5837 5836 5836 5836 5835 5835 5834 5834 5833 5833 5833 5832 5831 5830 5828 5826 5826 5827 5827 5828 5829 5830 5832 5834 5835 5836 5837 5838 5839 5841 5844 5847 5849 5852 5853 5854 5856 5858 5860 5862 5864 5866 5868 5870 5871 5873 5874 5876 5877 5878
5850 5849 5846 5844 5843 5842 5841 5840 5839 5838 5837 5836 5836 5835 5835 5835 5835 5834 5834 5833 5833 5833 5833 5832 5831 5829 5828 5827 5826 5826 5826 5826 5826 5827 5828 5829 5830 5831 5832 5834 5836 5838 5840 5843 5845 5847 5850 5851 5852 5853 5855 5857 5858 5860 5862 5864 5866 5868 5869 5871 5872 5874 5875
5850 5848 5846 5844 5842 5841 5840 5839 5838 5837 5836 5836 5835 5835 5834 5834 5834 5834 5833 5832 5832 5832 5832 5831 5830 5828 5827 5827 5827 5826 5825 5825 5825 5826 5826 5826 5827 5828 5830 5831 5833 5836 5838 5840 5842 5844 5847 5849 5850 5850 5852 5854 5856 5858 5860 5861 5863 5864 5866 5868 5869 5870 5872
5848 5847 5845 5843 5842 5840 5839 5838 5837 5836 5836 5835 5835 5834 5834 5833 5833 5833 5832 5832 5831 5831 5831 5830 5829 5828 5827 5826 5826 5826 5825 5824 5824 5825 5825 5825 5825 5826 5828 5829 5831 5833 5835 5837 5839 5841 5844 5846 5847 5848 5850 5853 5855 5856 5857 5859 5860 5862 5863 5865 5866 5868 5869
5847 5846 5844 5843 5841 5839 5838 5837 5836 5836 5835 5835 5834 5834 5833 5833 5833 5832 5832 5831 5830 5830 5829 5829 5828 5827 5826 5825 5825 5826 5825 5825 5824 5825 5825 5826 5825 5825 5826 5828 5830 5831 5833 5834 5836 5838 5841 5842 5843 5845 5848 5850 5852 5853 5854 5856 5857 5859 5861 5862 5864 5865 5866
5846 5845 5843 5842 5841 5839 5837 5836 5835 5835 5834 5834 5834 5833 5833 5832 5832 5832 5831 5830 5830 5829 5828 5827 5827 5826 5826 5825 5825 5825 5825 5824 5824 5825 5825 5826 5825 5825 5826 5827 5828 5829 5830 5832 5833 5835 5837 5839 5841 5843 5846 5847 5849 5850 5852 5853 5855 5856 5858 5859 5861 5862 5864
5844 5843 5842 5841 5840 5839 5837 5836 5835 5834 5834 5834 5833 5833 5832 5832 5831 5831 5831 5830 5829 5829 5828 5827 5826 5826 5825 5825 5824 5824 5824 5824 5824 5824 5824 5825 5825 5825 5825 5826 5827 5828 5829 5829 5831 5833 5835 5837 5839 5841 5843 5845 5846 5848 5850 5851 5852 5854 5855 5857 5858 5860 5861
5843 5842 5841 5840 5839 5838 5837 5836 5835 5834 5833 5833 5833 5832 5832 5831 5831 5830 5830 5829 5829 5829 5828 5827 5826 5825 5825 5824 5824 5824 5824 5823 5823 5824 5823 5823 5824 5825 5825 5826 5826 5827 5828 5828 5829 5831 5833 5834 5836 5838 5841 5843 5844 5845 5846 5848 5849 5851 5853 5854 5856 5857 5858
5841 5840 5839 5839 5838 5837 5836 5835 5834 5833 5833 5833 5832 5831 5831 5830 5830 5830 5829 5829 5829 5828 5828 5827 5826 5826 5825 5824 5824 5824 5823 5823 5823 5824 5824 5824 5824 5824 5825 5825 5826 5827 5827 5828 5829 5830 5832 5833 5835 5836 5838 5840 5841 5842 5843 5845 5847 5849 5850 5851 5852 5854 5855
5839 5839 5838 5837 5837 5836 5835 5834 5833 5833 5832 5832 5831 5831 5830 5830 5830 5829 5829 5828 5828 5828 5828 5828 5827 5826 5825 5825 5824 5823 5823 5823 5823 5823 5824 5824 5824 5824 5824 5825 5826 5826 5827 5828 5829 5830 5831 5832 5833 5834 5836 5837 5838 5839 5840 5842 5844 5845 5846 5847 5849 5850 5851
5837 5837 5836 5836 5835 5835 5833 5833 5832 5832 5831 5831 5830 5830 5830 5829 5829 5829 5828 5827 5827 5827 5827 5827 5827 5826 5825 5825 5824 5824 5823 5823 5823 5823 5823 5824 5824 5824 5824 5824 5825 5826 5826 5827 5828 5829 5830 5831 5832 5833 5834 5835 5836 5837 5838 5839 5841 5842 5843 5845 5846 5846 5847
5835 5835 5834 5834 5834 5833 5832 5831 5831 5830 5830 5829 5829 5829 5828 5828 5828 5828 5827 5827 5826 5826 5827 5827 5827 5826 5825 5825 5824 5824 5823 5823 5823 5822 5823 5823 5823 5824 5824 5824 5825 5825 5825 5826 5827 5828 5829 5829 5830 5831 5832 5833 5834 5835 5836 5838 5839 5840 5842 5843 5844 5844 5845
5833 5832 5832 5831 5831 5831 5830 5829 5829 5828 5828 5828 5828 5827 5827 5827 5827 5827 5826 5826 5825 5825 5825 5826 5826 5825 5825 5825 5824 5824 5824 5823 5823 5823 5823 5823 5823 5823 5824 5824 5825 5825 5825 5825 5826 5827 5828 5829 5829 5830 5831 5832 5833 5833 5834 5835 5837 5838 5840 5841 5842 5842 5842
5830 5830 5829 5829 5829 5829 5829 5828 5827 5827 5826 5826 5826 5826 5826 5826 5825 5825 5825 5825 5824 5824 5824 5824 5824 5824 5824 5824 5824 5824 5823 5823 5823 5823 5823 5823 5823 5823 5823 5824 5824 5824 5825 5825 5826 5827 5827 5828 5828 5829 5830 5831 5831 5832 5833 5834 5835 5836 5837 5838 5838 5839 5840
5827 5827 5827 5827 5827 5827 5827 5826 5825 5825 5824 5824 5824 5824 5824 5824 5824 5824 5823 5823 5823 5823 5823 5823 5823 5823 5823 5823 5823 5823 5823 5823 5823 5823 5823 5823 5823 5823 5823 5823 5823 5824 5824 5825 5825 5826 5827 5827 5827 5828 5828 5829 5829 5830 5830 5832 5833 5833 5834 5834 5835 5835 5837
5824 5824 5825 5825 5825 5824 5824 5824 5824 5823 5823 5822 5822 5822 5822 5822 5822 5822 5822 5822 5822 5822 5822 5822 5822 5822 5822 5822 5822 5823 5823 5822 5822 5822 5822 5822 5822 5822 5822 5822 5822 5823 5823 5824 5824 5825 5825 5826 5826 5826 5827 5827 5827 5827 5827 5829 5830 5830 5830 5831 5832 5832 5834
5821 5821 5822 5822 5822 5822 5821 5821 5821 5821 5820 5820 5820 5820 5820 5820 5820 5820 5820 5820 5820 5820 5821 5821 5821 5821 5821 5821 5821 5821 5821 5821 5821 5821 5821 5821 5821 5821 5821 5821 5821 5822 5822 5823 5823 5824 5824 5824 5824 5825 5825 5825 5825 5825 5825 5826 5828 5828 5828 5829 5829 5830 5830
5817 5817 5818 5819 5819 5819 5819 5818 5818 5818 5818 5817 5817 5817 5817 5817 5818 5818 5818 5818 5818 5818 5818 5819 5819 5819 5819 5819 5819 5819 5820 5820 5820 5820 5819 5819 5819 5819 5820 5820 5820 5820 5820 5821 5821 5822 5822 5823 5823 5823 5823 5823 5823 5823 5823 5823 5824 5826 5827 5827 5827 5827 5827
5813 5813 5814 5815 5815 5816 5816 5815 5815 5814 5814 5814 5814 5814 5814 5814 5815 5815 5815 5815 5815 5815 5816 5816 5816 5816 5817 5818 5818 5818 5818 5818 5818 5818 5818 5818 5818 5818 5818 5818 5818 5819 5819 5819 5819 5820 5820 5821 5821 5821 5822 5822 5822 5822 5821 5821 5821 5823 5824 5824 5824 5824 5824
5808 5809 5810 5811 5811 5812 5812 5812 5811 5811 5811 5811 5811 5811 5811 5811 5811 5812 5812 5812 5812 5812 5813 5813 5813 5814 5814 5815 5816 5816 5816 5816 5817 5817 5817 5817 5817 5816 5816 5816 5816 5817 5817 5817 5817 5818 5818 5818 5819 5819 5819 5819 5819 5819 5819 5819 5819 5820 5820 5821 5821 5821 5821
5804 5805 5806 5806 5807 5808 5808 5808 5808 5807 5807 5807 5808 5808 5808 5808 5808 5808 5809 5809 5809 5809 5809 5810 5810 5811 5811 5812 5813 5814 5814 5815 5815 5815 5815 5815 5815 5815 5815 5815 5815 5815 5815 5815 5815 5816 5816 5816 5816 5817 5817 5816 5816 5816 5816 5816 5817 5817 5817 5818 5818 5818 5818
5799 5800 5801 5802 5803 5804 5804 5804 5803 5803 5803 5803 5803 5803 5804 5804 5805 5805 5805 5805 5806 5806 5806 5806 5807 5807 5808 5809 5810 5811 5812 5812 5813 5813 5813 5813 5813 5813 5813 5813 5813 5813 5813 5813 5813 5813 5814 5814 5814 5814 5814 5814 5814 5813 5813 5813 5813 5814 5814 5814 5814 5814 5814
5793 5795 5796 5797 5798 5799 5799 5799 5798 5798 5797 5797 5797 5798 5799 5800 5801 5801 5801 5801 5802 5803 5803 5804 5804 5804 5805 5806 5806 5807 5808 5809 5810 5811 5811 5811 5811 5811 5811 5811 5811 5811 5811 5811 5811 5811 5811 5812 5812 5812 5812 5812 5811 5811 5811 5811 5811 5811 5811 5811 5811 5811 5811